QPF
0.00 0.00 0.00 0.00 0.00 0.00 0.00 0.00 0.00 0.00 0.00 0.00 0.00 0.00 0.00 0.00 0.00 0.00 0.00 0.00 0.00 0.00 0.00 0.00 0.00 0.00 0.00 0.00 0.00 0.00 0.00 0.00 0.00 0.00 0.00 0.00 0.00 0.00 0.00 0.00 0.00 0.00 0.00
0.00 0.00 0.00 0.00 0.00 0.00 0.00 0.00 0.00 0.00 0.00 0.00 0.00 0.00 0.00 0.00 0.00 0.00 0.00 0.00 0.00 0.00 0.00 0.00 0.00 0.00 0.00 0.00 0.00 0.00 0.00 0.00 0.00 0.00 0.00 0.00 0.00 0.00 0.00 0.00 0.00 0.00 0.00
0.00 0.00 0.00 0.00 0.00 0.00 0.00 0.00 0.00 0.00 0.00 0.00 0.00 0.00 0.00 0.00 0.00 0.00 0.00 0.00 0.00 0.00 0.00 0.00 0.00 0.00 0.00 0.00 0.00 0.00 0.00 0.00 0.00 0.00 0.00 0.00 0.00 0.00 0.00 0.00 0.00 0.00 0.00
0.00 0.00 0.00 0.00 0.00 0.00 0.00 0.00 0.00 0.00 0.00 0.00 0.00 0.00 0.00 0.00 0.00 0.00 0.00 0.00 0.00 0.00 0.00 0.00 0.00 0.00 0.00 0.00 0.00 0.00 0.00 0.00 0.00 0.00 0.00 0.00 0.00 0.00 0.00 0.00 0.00 0.00 0.00
0.00 0.00 0.00 0.00 0.00 0.00 0.00 0.00 0.00 0.00 0.00 0.00 0.00 0.00 0.00 0.00 0.00 0.00 0.00 0.00 0.00 0.00 0.00 0.00 0.00 0.00 0.00 0.00 0.00 0.00 0.00 0.00 0.00 0.00 0.00 0.00 0.00 0.00 0.00 0.00 0.00 0.00 0.00
0.00 0.00 0.00 0.00 0.00 0.00 0.00 0.00 0.00 0.00 0.00 0.00 0.00 0.00 0.00 0.00 0.00 0.00 0.00 0.00 0.00 0.00 0.00 0.00 0.00 0.00 0.00 0.00 0.00 0.00 0.00 0.00 0.00 0.00 0.00 0.00 0.00 0.00 0.00 0.00 0.00 0.00 0.00
0.00 0.00 0.00 0.00 0.00 0.00 0.00 0.00 0.00 0.00 0.00 0.00 0.00 0.00 0.00 0.00 0.00 0.00 0.00 0.00 0.00 0.00 0.00 0.00 0.00 0.00 0.00 0.00 0.00 0.00 0.00 0.00 0.00 0.00 0.00 0.00 0.00 0.00 0.00 0.00 0.00 0.00 0.00
0.00 0.00 0.00 0.00 0.00 0.00 0.00 0.00 0.00 0.00 0.00 0.00 0.00 0.00 0.00 0.00 0.00 0.00 0.00 0.00 0.00 0.00 0.00 0.00 0.00 0.00 0.00 0.00 0.00 0.00 0.00 0.00 0.00 0.00 0.00 0.00 0.00 0.00 0.00 0.00 0.00 0.00 0.00
0.00 0.00 0.00 0.00 0.00 0.00 0.00 0.00 0.00 0.00 0.00 0.00 0.00 0.00 0.00 0.00 0.00 0.00 0.00 0.00 0.00 0.00 0.00 0.00 0.00 0.00 0.00 0.00 0.00 0.00 0.00 0.00 0.00 0.00 0.00 0.00 0.00 0.00 0.00 0.00 0.00 0.00 0.00
0.00 0.00 0.00 0.00 0.00 0.00 0.00 0.00 0.00 0.00 0.00 0.00 0.00 0.00 0.00 0.00 0.00 0.00 0.00 0.00 0.00 0.00 0.00 0.00 0.00 0.00 0.00 0.00 0.00 0.00 0.00 0.00 0.00 0.00 0.00 0.00 0.00 0.00 0.00 0.00 0.00 0.00 0.00
0.00 0.00 0.00 0.00 0.00 0.00 0.00 0.00 0.00 0.00 0.00 0.00 0.00 0.00 0.00 0.00 0.00 0.00 0.00 0.00 0.00 0.00 0.00 0.00 0.00 0.00 0.00 0.00 0.00 0.00 0.00 0.00 0.00 0.00 0.00 0.00 0.00 0.00 0.00 0.00 0.00 0.00 0.00
0.00 0.00 0.00 0.00 0.00 0.00 0.00 0.00 0.00 0.00 0.00 0.00 0.00 0.00 0.00 0.00 0.00 0.00 0.00 0.00 0.00 0.00 0.00 0.00 0.00 0.00 0.00 0.00 0.00 0.00 0.00 0.00 0.00 0.00 0.00 0.00 0.00 0.00 0.00 0.00 0.00 0.00 0.00
0.00 0.00 0.00 0.00 0.00 0.00 0.00 0.00 0.00 0.00 0.00 0.00 0.00 0.00 0.00 0.00 0.00 0.00 0.00 0.00 0.00 0.00 0.00 0.00 0.00 0.00 0.00 0.00 0.00 0.00 0.00 0.00 0.00 0.00 0.00 0.00 0.00 0.00 0.00 0.00 0.00 0.00 0.00
0.00 0.00 0.00 0.00 0.00 0.00 0.00 0.00 0.00 0.00 0.00 0.00 0.00 0.00 0.00 0.00 0.00 0.00 0.00 0.00 0.00 0.00 0.00 0.00 0.00 0.00 0.00 0.00 0.00 0.00 0.00 0.00 0.00 0.00 0.00 0.00 0.00 0.00 0.00 0.00 0.00 0.00 0.00
0.00 0.00 0.00 0.00 0.00 0.00 0.00 0.00 0.00 0.00 0.00 0.00 0.00 0.00 0.00 0.00 0.00 0.00 0.00 0.00 0.00 0.00 0.00 0.00 0.00 0.00 0.00 0.00 0.00 0.00 0.00 0.00 0.00 0.00 0.00 0.00 0.00 0.00 0.00 0.00 0.00 0.00 0.00
0.00 0.00 0.00 0.00 0.00 0.00 0.00 0.00 0.00 0.00 0.00 0.00 0.00 0.00 0.00 0.00 0.00 0.00 0.00 0.00 0.00 0.00 0.00 0.00 0.00 0.00 0.00 0.00 0.00 0.00 0.00 0.00 0.00 0.00 0.00 0.00 0.00 0.00 0.00 0.00 0.00 0.00 0.00
0.00 0.00 0.00 0.00 0.00 0.00 0.00 0.00 0.00 0.00 0.00 0.00 0.00 0.00 0.00 0.00 0.00 0.00 0.00 0.00 0.00 0.00 0.00 0.00 0.00 0.00 0.00 0.00 0.00 0.00 0.00 0.00 0.00 0.00 0.00 0.00 0.00 0.00 0.00 0.00 0.00 0.00 0.00
0.00 0.00 0.00 0.00 0.00 0.00 0.00 0.00 0.00 0.00 0.00 0.00 0.00 0.00 0.00 0.00 0.00 0.00 0.00 0.00 0.00 0.00 0.00 0.00 0.00 0.00 0.00 0.00 0.00 0.00 0.00 0.00 0.00 0.00 0.00 0.00 0.00 0.00 0.00 0.00 0.00 0.00 0.00
0.00 0.00 0.00 0.00 0.00 0.00 0.00 0.00 0.00 0.00 0.00 0.00 0.00 0.00 0.00 0.00 0.00 0.00 0.00 0.00 0.00 0.00 0.00 0.00 0.00 0.00 0.00 0.00 0.00 0.00 0.00 0.00 0.00 0.00 0.00 0.00 0.00 0.00 0.00 0.00 0.00 0.00 0.00
0.00 0.00 0.00 0.00 0.00 0.00 0.00 0.00 0.00 0.00 0.00 0.00 0.00 0.00 0.00 0.00 0.00 0.00 0.00 0.00 0.00 0.00 0.00 0.00 0.00 0.00 0.00 0.00 0.00 0.00 0.00 0.00 0.00 0.00 0.00 0.00 0.00 0.00 0.00 0.00 0.00 0.00 0.00
0.00 0.00 0.00 0.00 0.00 0.00 0.00 0.00 0.00 0.00 0.00 0.00 0.00 0.00 0.00 0.00 0.00 0.00 0.00 0.00 0.00 0.00 0.00 0.00 0.00 0.00 0.00 0.00 0.00 0.00 0.00 0.00 0.00 0.00 0.00 0.00 0.00 0.00 0.00 0.00 0.00 0.00 0.00
0.00 0.00 0.00 0.00 0.00 0.00 0.00 0.00 0.00 0.00 0.00 0.00 0.00 0.00 0.00 0.00 0.00 0.00 0.00 0.00 0.00 0.00 0.00 0.00 0.00 0.00 0.00 0.00 0.00 0.00 0.00 0.00 0.00 0.00 0.00 0.00 0.00 0.00 0.00 0.00 0.00 0.00 0.00
0.00 0.00 0.00 0.00 0.00 0.00 0.00 0.00 0.00 0.00 0.00 0.00 0.00 0.00 0.00 0.00 0.00 0.00 0.00 0.00 0.00 0.00 0.00 0.00 0.00 0.00 0.00 0.00 0.00 0.00 0.00 0.00 0.00 0.00 0.00 0.00 0.00 0.00 0.00 0.00 0.00 0.00 0.00
0.00 0.00 0.00 0.00 0.00 0.00 0.00 0.00 0.00 0.00 0.00 0.00 0.00 0.00 0.00 0.00 0.00 0.00 0.00 0.00 0.00 0.00 0.00 0.00 0.00 0.00 0.00 0.00 0.00 0.00 0.00 0.00 0.00 0.00 0.00 0.00 0.00 0.00 0.00 0.00 0.00 0.00 0.00
0.00 0.00 0.00 0.00 0.00 0.00 0.00 0.00 0.00 0.00 0.00 0.00 0.00 0.00 0.00 0.00 0.00 0.00 0.00 0.00 0.00 0.00 0.00 0.00 0.00 0.00 0.00 0.00 0.00 0.00 0.00 0.00 0.00 0.00 0.00 0.00 0.00 0.00 0.00 0.00 0.00 0.00 0.00
0.00 0.00 0.00 0.00 0.00 0.00 0.00 0.00 0.00 0.00 0.01 0.01 0.01 0.00 0.00 0.00 0.00 0.00 0.00 0.00 0.00 0.00 0.00 0.00 0.00 0.00 0.00 0.00 0.00 0.00 0.00 0.00 0.00 0.00 0.00 0.00 0.00 0.00 0.00 0.00 0.00 0.00 0.00
MSLP
1008.37 1010.70 1011.99 1012.53 1013.02 1013.38 1013.71 1014.12 1014.47 1014.79 1015.03 1015.19 1015.39 1015.59 1015.81 1015.79 1015.87 1016.10 1016.33 1016.46 1016.58 1016.67 1016.86 1017.04 1017.17 1017.25 1017.39 1017.47 1017.62 1017.70 1017.87 1017.98 1018.06 1018.17 1018.25 1018.45 1018.53 1018.68 1018.84 1018.87 1018.76 1018.96 1019.53
1008.92 1010.96 1012.34 1012.75 1013.24 1013.64 1013.98 1014.39 1014.78 1015.03 1015.29 1015.61 1015.74 1015.99 1016.15 1016.28 1016.34 1016.46 1016.59 1016.73 1016.85 1017.00 1017.13 1017.26 1017.39 1017.58 1017.74 1017.92 1018.00 1018.18 1018.35 1018.37 1018.37 1018.51 1018.56 1018.80 1018.93 1019.13 1019.25 1019.21 1018.94 1019.67 1019.79
1009.57 1011.20 1012.36 1013.06 1013.53 1013.86 1014.23 1014.56 1014.96 1015.31 1015.54 1015.86 1016.20 1016.36 1016.49 1016.60 1016.70 1016.80 1016.94 1017.04 1017.10 1017.34 1017.47 1017.58 1017.74 1017.94 1018.18 1018.37 1018.47 1018.58 1018.64 1018.60 1018.58 1018.47 1018.23 1018.06 1018.98 1019.52 1019.64 1019.76 1019.93 1020.03 1020.10
1009.95 1011.41 1012.18 1013.42 1013.83 1014.14 1014.46 1014.74 1015.10 1015.50 1015.88 1016.13 1016.47 1016.67 1016.80 1016.95 1017.03 1017.08 1017.21 1017.39 1017.48 1017.65 1017.77 1017.89 1018.06 1018.33 1018.55 1018.67 1018.81 1018.89 1018.89 1018.67 1018.57 1018.53 1018.04 1017.90 1018.78 1019.87 1020.04 1020.16 1020.19 1020.27 1020.36
1010.14 1011.30 1012.47 1013.54 1014.08 1014.41 1014.65 1014.94 1015.26 1015.68 1016.04 1016.39 1016.68 1016.87 1017.02 1017.17 1017.32 1017.49 1017.56 1017.71 1017.81 1017.95 1018.07 1018.21 1018.42 1018.68 1018.87 1019.01 1019.10 1019.22 1019.20 1018.88 1018.59 1018.42 1017.37 1017.93 1018.57 1019.94 1020.14 1020.27 1020.40 1020.55 1020.61
1010.16 1011.09 1013.31 1013.83 1014.30 1014.68 1014.89 1015.27 1015.39 1015.81 1016.24 1016.55 1016.87 1017.09 1017.26 1017.39 1017.57 1017.66 1017.83 1017.95 1018.07 1018.21 1018.32 1018.51 1018.75 1018.93 1019.04 1019.18 1019.31 1019.40 1019.24 1018.94 1018.85 1017.26 1017.87 1018.36 1018.53 1019.93 1020.23 1020.38 1020.46 1020.62 1020.70
1010.55 1011.44 1013.26 1014.29 1014.60 1014.98 1015.18 1015.44 1015.82 1016.01 1016.39 1016.74 1017.00 1017.26 1017.46 1017.65 1017.80 1017.90 1017.97 1018.18 1018.37 1018.51 1018.64 1018.81 1019.02 1019.21 1019.33 1019.49 1019.64 1019.65 1019.49 1019.31 1018.70 1017.29 1018.09 1018.31 1019.49 1020.10 1020.32 1020.51 1020.63 1020.73 1020.82
1010.83 1011.88 1013.36 1014.58 1015.06 1015.31 1015.60 1015.72 1016.02 1016.37 1016.62 1016.87 1017.15 1017.43 1017.61 1017.81 1018.03 1018.18 1018.27 1018.37 1018.55 1018.75 1018.99 1019.18 1019.41 1019.54 1019.63 1019.75 1019.84 1019.81 1019.63 1019.23 1018.06 1017.42 1017.64 1018.16 1019.69 1020.04 1020.23 1020.43 1020.63 1020.78 1020.89
1010.99 1012.03 1013.43 1014.30 1015.11 1015.77 1016.02 1016.26 1016.40 1016.61 1016.90 1017.16 1017.39 1017.58 1017.84 1018.05 1018.23 1018.40 1018.57 1018.68 1018.79 1019.00 1019.21 1019.41 1019.57 1019.68 1019.78 1019.88 1019.91 1019.95 1019.80 1019.31 1018.62 1017.37 1017.74 1018.08 1019.59 1019.89 1020.15 1020.39 1020.62 1020.79 1020.92
1011.57 1012.45 1013.33 1014.00 1014.76 1015.37 1016.01 1016.71 1016.88 1017.03 1017.21 1017.40 1017.66 1017.87 1018.06 1018.35 1018.56 1018.66 1018.82 1018.94 1019.05 1019.18 1019.37 1019.55 1019.75 1019.87 1019.92 1020.01 1020.03 1020.05 1019.95 1019.48 1018.44 1017.28 1017.67 1018.50 1019.32 1019.76 1020.05 1020.28 1020.45 1020.61 1020.74
1011.84 1012.54 1013.21 1013.80 1014.34 1014.94 1015.45 1016.40 1017.19 1017.44 1017.61 1017.78 1017.90 1018.13 1018.35 1017.99 1018.33 1018.63 1018.60 1018.88 1019.25 1019.40 1019.58 1019.70 1019.84 1020.00 1020.08 1020.09 1020.06 1020.03 1020.00 1018.75 1017.33 1017.30 1017.01 1018.53 1019.16 1019.54 1019.81 1020.02 1020.23 1020.40 1020.54
1011.40 1012.11 1012.86 1013.49 1014.09 1014.59 1014.69 1015.60 1016.56 1016.84 1017.23 1017.45 1017.53 1017.85 1017.73 1017.42 1017.62 1017.65 1018.18 1018.98 1019.31 1019.51 1019.65 1019.80 1019.97 1020.08 1020.15 1019.04 1019.19 1019.80 1019.25 1018.17 1017.68 1017.18 1017.28 1018.42 1018.96 1019.31 1019.56 1019.79 1019.97 1020.16 1020.31
1010.69 1011.68 1012.41 1013.13 1013.47 1014.05 1014.01 1014.82 1015.65 1015.91 1016.39 1016.76 1016.91 1017.26 1017.23 1016.94 1017.26 1017.43 1017.76 1018.60 1018.95 1019.49 1019.26 1019.64 1019.77 1019.64 1019.12 1018.56 1017.65 1018.20 1018.11 1017.90 1017.56 1016.98 1017.64 1018.10 1018.72 1019.11 1019.30 1019.46 1019.66 1019.83 1019.96
1010.05 1011.12 1012.09 1012.80 1013.45 1013.70 1013.58 1014.11 1014.78 1015.05 1015.59 1015.83 1016.15 1016.64 1016.82 1016.59 1016.71 1016.92 1016.85 1017.57 1018.15 1018.32 1018.39 1018.47 1018.47 1018.66 1018.58 1018.33 1017.88 1017.56 1017.77 1017.62 1017.20 1016.83 1017.17 1017.72 1018.28 1018.74 1018.96 1019.09 1019.26 1019.41 1019.55
1009.64 1010.60 1011.83 1012.44 1013.12 1013.58 1013.76 1013.49 1014.00 1014.29 1014.92 1015.10 1015.45 1015.93 1016.35 1016.11 1016.26 1016.46 1016.42 1016.71 1017.17 1017.28 1017.75 1017.56 1017.71 1017.67 1017.88 1017.87 1017.86 1017.92 1017.83 1017.78 1017.66 1017.27 1016.80 1017.59 1017.82 1018.18 1018.53 1018.68 1018.74 1018.86 1019.01
1009.61 1010.30 1011.33 1012.17 1012.92 1013.26 1013.64 1013.55 1013.78 1013.88 1013.93 1014.66 1014.83 1015.16 1015.89 1015.76 1015.79 1016.03 1016.14 1016.14 1016.21 1016.53 1016.75 1017.03 1016.90 1017.07 1017.24 1017.23 1017.40 1017.57 1017.56 1017.44 1017.26 1017.20 1016.96 1016.79 1017.34 1017.48 1017.81 1018.12 1018.22 1018.26 1018.35
1010.23 1010.46 1011.14 1012.16 1012.66 1013.35 1013.60 1013.69 1013.57 1013.67 1014.10 1014.06 1014.31 1014.65 1015.11 1015.77 1015.59 1015.73 1015.79 1015.94 1015.88 1015.90 1016.25 1016.40 1016.60 1016.75 1016.77 1016.80 1016.83 1016.71 1017.03 1017.10 1016.93 1016.79 1016.68 1016.57 1016.42 1017.00 1016.98 1017.14 1017.38 1017.60 1017.71
1011.17 1010.51 1011.17 1011.78 1012.56 1013.34 1013.49 1013.46 1013.53 1013.49 1013.65 1013.91 1013.99 1014.19 1014.74 1015.10 1015.42 1015.54 1015.64 1015.54 1015.59 1015.65 1015.76 1016.14 1016.25 1016.32 1016.42 1016.37 1016.24 1016.17 1016.15 1016.16 1016.07 1016.10 1016.18 1016.07 1015.91 1015.67 1016.03 1016.38 1016.52 1016.62 1016.77
1013.22 1012.49 1011.48 1011.83 1012.53 1012.99 1013.35 1013.26 1013.22 1013.27 1013.39 1013.36 1013.61 1013.74 1014.02 1014.62 1014.93 1015.07 1015.09 1015.04 1015.23 1015.41 1015.28 1015.55 1015.78 1015.85 1015.75 1015.85 1015.69 1015.62 1015.52 1015.32 1015.12 1015.04 1015.08 1015.19 1015.31 1015.35 1015.13 1014.98 1015.58 1015.76 1015.79
1014.35 1013.89 1013.62 1013.30 1012.68 1012.95 1013.09 1012.97 1013.03 1012.88 1013.01 1013.15 1012.84 1012.93 1013.27 1013.74 1014.36 1014.48 1014.39 1014.56 1014.69 1014.83 1014.75 1014.94 1015.22 1015.16 1015.28 1015.07 1014.89 1014.59 1014.64 1014.63 1014.55 1014.42 1014.28 1014.22 1014.18 1014.25 1014.38 1014.46 1014.49 1014.93 1015.14
1015.32 1014.86 1014.82 1014.59 1014.42 1013.87 1012.84 1012.90 1012.61 1012.44 1012.48 1012.71 1012.80 1012.52 1012.56 1012.90 1013.35 1013.95 1013.89 1013.78 1014.01 1014.21 1014.20 1014.26 1014.52 1014.84 1014.57 1014.84 1014.73 1014.28 1014.02 1013.88 1013.91 1013.85 1013.63 1013.44 1013.27 1013.19 1013.30 1013.36 1013.54 1013.50 1013.34
1016.46 1016.26 1016.09 1015.92 1015.59 1015.22 1014.51 1013.54 1012.63 1012.26 1011.92 1011.88 1012.02 1012.31 1012.46 1012.48 1012.78 1013.06 1013.42 1013.29 1013.27 1013.35 1013.71 1013.96 1013.98 1014.05 1014.11 1014.37 1014.20 1014.18 1013.64 1013.25 1012.84 1012.79 1012.78 1012.64 1012.63 1012.48 1012.19 1012.17 1012.32 1012.43 1012.55
1017.24 1017.24 1017.03 1017.26 1017.09 1016.71 1016.22 1014.88 1013.88 1012.10 1011.80 1011.65 1011.32 1011.49 1011.88 1012.07 1011.93 1012.29 1012.48 1012.83 1012.73 1012.83 1012.68 1013.07 1013.50 1013.60 1013.46 1013.45 1013.70 1013.78 1013.12 1012.44 1011.92 1011.05 1011.29 1011.69 1011.80 1011.77 1011.63 1011.51 1011.47 1011.48 1011.70
1018.07 1018.27 1017.91 1018.13 1018.06 1017.68 1017.33 1016.81 1016.47 1015.66 1013.31 1010.96 1010.87 1010.90 1010.81 1010.86 1011.19 1011.49 1011.81 1012.03 1012.38 1012.14 1011.93 1011.92 1012.32 1012.58 1013.12 1012.84 1012.79 1012.84 1012.96 1012.79 1012.17 1010.96 1010.45 1010.61 1010.99 1011.24 1011.25 1011.24 1011.03 1010.98 1011.02
1018.82 1018.84 1018.91 1018.55 1018.74 1018.72 1018.32 1017.74 1017.36 1016.81 1016.23 1014.29 1011.34 1010.70 1010.51 1010.25 1010.09 1010.31 1010.74 1011.22 1011.46 1011.63 1011.42 1011.47 1011.49 1011.69 1011.70 1011.91 1011.79 1011.58 1011.78 1012.06 1012.37 1012.12 1010.92 1010.42 1010.27 1010.24 1010.30 1010.38 1010.62 1010.55 1010.47
1019.34 1019.50 1019.39 1019.11 1018.98 1019.17 1019.05 1018.65 1018.28 1018.02 1017.57 1016.49 1015.11 1013.05 1010.93 1009.96 1009.72 1009.72 1009.93 1010.27 1010.52 1010.75 1010.75 1010.69 1010.74 1010.75 1010.76 1010.79 1010.77 1010.74 1010.65 1010.66 1010.75 1010.78 1010.49 1010.19 1009.97 1009.71 1009.59 1009.41 1009.51 1009.71 1009.81
Thickness
5794 5776 5765 5758 5752 5748 5744 5739 5733 5729 5726 5725 5723 5722 5720 5721 5722 5720 5719 5718 5717 5717 5716 5715 5714 5714 5714 5714 5714 5715 5714 5715 5716 5716 5717 5716 5718 5718 5718 5719 5719 5717 5713
5795 5775 5764 5758 5753 5748 5744 5741 5734 5729 5726 5724 5722 5721 5720 5719 5720 5719 5718 5717 5717 5716 5715 5715 5714 5713 5712 5712 5713 5713 5712 5714 5716 5716 5718 5717 5718 5717 5717 5717 5719 5713 5713
5790 5775 5765 5758 5753 5749 5744 5741 5736 5730 5726 5724 5721 5719 5719 5719 5718 5717 5717 5716 5716 5715 5714 5714 5713 5712 5711 5711 5711 5711 5713 5715 5717 5720 5723 5723 5718 5716 5716 5715 5714 5713 5714
5788 5775 5767 5757 5752 5749 5745 5741 5737 5732 5726 5724 5721 5719 5719 5718 5718 5717 5716 5715 5714 5714 5714 5713 5713 5711 5711 5711 5711 5712 5713 5717 5720 5722 5725 5727 5721 5715 5714 5714 5714 5714 5713
5789 5778 5767 5758 5752 5748 5745 5742 5738 5734 5729 5725 5722 5720 5719 5719 5719 5717 5717 5716 5715 5714 5714 5713 5712 5711 5711 5711 5712 5712 5714 5719 5723 5725 5732 5728 5724 5715 5715 5714 5714 5713 5713
5790 5781 5764 5758 5753 5749 5746 5742 5739 5735 5731 5727 5724 5721 5720 5720 5719 5719 5718 5717 5717 5716 5715 5714 5713 5714 5714 5714 5715 5715 5718 5722 5724 5734 5730 5727 5726 5717 5715 5715 5714 5713 5713
5788 5780 5765 5756 5752 5748 5745 5742 5739 5735 5732 5729 5726 5723 5721 5720 5720 5720 5720 5719 5718 5718 5717 5717 5716 5716 5716 5716 5716 5717 5720 5722 5727 5737 5731 5729 5721 5717 5716 5715 5714 5713 5712
5788 5778 5765 5755 5750 5747 5744 5742 5739 5735 5731 5730 5727 5724 5723 5721 5720 5720 5720 5720 5719 5718 5717 5717 5716 5716 5716 5716 5717 5718 5720 5725 5732 5736 5735 5731 5722 5718 5716 5715 5713 5712 5711
5788 5778 5766 5758 5750 5745 5742 5740 5738 5736 5732 5728 5727 5725 5723 5722 5721 5720 5719 5719 5720 5719 5718 5717 5716 5716 5716 5716 5717 5718 5720 5724 5729 5737 5734 5731 5722 5719 5717 5715 5713 5712 5711
5785 5775 5767 5761 5755 5748 5742 5737 5735 5734 5732 5730 5726 5724 5723 5721 5720 5720 5719 5719 5719 5719 5718 5717 5716 5716 5717 5717 5717 5718 5719 5723 5730 5737 5734 5729 5724 5720 5718 5716 5715 5713 5712
5782 5775 5768 5763 5758 5753 5748 5739 5734 5732 5730 5728 5726 5724 5722 5723 5721 5720 5721 5721 5719 5718 5717 5717 5716 5716 5716 5716 5717 5718 5719 5726 5737 5737 5740 5731 5726 5723 5720 5718 5716 5715 5713
5783 5779 5774 5766 5760 5756 5754 5747 5738 5735 5732 5730 5729 5726 5726 5728 5727 5727 5724 5721 5719 5718 5717 5716 5716 5715 5716 5722 5722 5720 5722 5730 5734 5738 5738 5732 5727 5724 5722 5720 5718 5716 5714
5790 5783 5778 5771 5766 5761 5759 5752 5746 5743 5739 5736 5734 5731 5730 5732 5729 5728 5726 5721 5719 5717 5718 5717 5716 5717 5721 5725 5733 5729 5730 5732 5735 5740 5737 5734 5730 5726 5723 5722 5719 5717 5716
5792 5785 5779 5773 5767 5763 5763 5758 5751 5749 5745 5743 5741 5737 5734 5735 5734 5732 5733 5728 5725 5724 5724 5724 5724 5723 5724 5726 5730 5733 5732 5734 5737 5740 5739 5736 5732 5728 5725 5723 5722 5720 5719
5790 5786 5779 5775 5768 5763 5761 5763 5758 5754 5748 5747 5745 5741 5738 5740 5738 5736 5736 5734 5730 5730 5728 5729 5729 5730 5729 5729 5730 5730 5731 5731 5733 5736 5739 5736 5734 5731 5728 5726 5725 5724 5722
5790 5785 5781 5775 5769 5764 5760 5761 5759 5757 5755 5749 5748 5745 5740 5741 5741 5739 5738 5738 5737 5734 5733 5731 5733 5733 5732 5732 5732 5731 5731 5732 5734 5734 5736 5738 5737 5736 5733 5730 5728 5727 5726
5779 5780 5776 5769 5768 5762 5759 5757 5757 5757 5753 5752 5750 5748 5744 5739 5740 5739 5739 5738 5738 5738 5735 5734 5732 5732 5733 5733 5733 5735 5733 5732 5734 5735 5736 5737 5740 5738 5738 5736 5734 5732 5730
5765 5773 5772 5770 5764 5757 5756 5756 5755 5755 5754 5752 5751 5748 5744 5741 5738 5738 5738 5739 5737 5737 5736 5733 5732 5732 5731 5732 5734 5736 5737 5736 5737 5737 5737 5739 5740 5742 5743 5741 5739 5738 5736
5744 5752 5763 5763 5757 5754 5752 5753 5753 5753 5753 5753 5751 5750 5748 5742 5739 5738 5738 5739 5737 5736 5737 5735 5733 5732 5732 5731 5733 5735 5738 5740 5742 5743 5743 5743 5743 5743 5744 5747 5744 5742 5741
5728 5734 5737 5741 5748 5748 5748 5751 5751 5753 5751 5748 5752 5752 5750 5746 5741 5739 5739 5739 5737 5737 5738 5737 5734 5735 5733 5734 5735 5738 5740 5741 5742 5744 5746 5747 5748 5748 5747 5747 5746 5744 5744
5711 5715 5717 5721 5724 5731 5741 5740 5744 5745 5748 5747 5746 5748 5749 5747 5744 5739 5739 5740 5738 5737 5738 5738 5735 5731 5733 5733 5730 5733 5738 5742 5742 5744 5747 5749 5750 5751 5751 5751 5749 5750 5751
5688 5692 5697 5700 5705 5708 5716 5726 5736 5741 5746 5748 5747 5745 5744 5743 5740 5738 5737 5739 5740 5738 5736 5734 5733 5731 5731 5730 5725 5723 5722 5733 5743 5746 5747 5749 5750 5752 5755 5755 5755 5754 5753
5668 5671 5675 5677 5680 5686 5692 5705 5716 5735 5738 5741 5746 5745 5742 5739 5739 5736 5735 5734 5736 5737 5737 5733 5730 5727 5725 5729 5728 5721 5719 5722 5733 5753 5751 5750 5750 5752 5754 5755 5756 5757 5755
5648 5649 5655 5656 5658 5664 5670 5675 5679 5685 5709 5737 5739 5740 5740 5740 5737 5733 5731 5730 5729 5733 5735 5736 5732 5729 5722 5722 5726 5729 5728 5726 5722 5730 5749 5752 5750 5748 5750 5751 5754 5754 5753
5630 5630 5631 5636 5638 5640 5644 5652 5658 5664 5673 5693 5721 5727 5731 5735 5738 5735 5732 5729 5727 5726 5730 5729 5729 5727 5727 5723 5725 5728 5729 5726 5724 5719 5723 5736 5745 5750 5750 5750 5748 5748 5748
5612 5611 5611 5614 5617 5617 5621 5627 5632 5638 5645 5656 5669 5689 5711 5722 5728 5730 5728 5727 5727 5726 5725 5727 5726 5725 5726 5726 5727 5728 5728 5726 5724 5722 5723 5730 5729 5740 5744 5750 5749 5747 5743